This is the latest recevied weather packets stored in our database for station/object WD0REW. If no packets are shown the sender has not sent any weather packets the latest 10 day(s).
| Time | Temp. | Humidity | Pressure | Rain* | Wind** | Luminosity | Snow |
|---|---|---|---|---|---|---|---|
| 1777568114 | 17.22° C | 39% | 1019.9 hPa | 0 mm | - | 540 W/m² | - |
| 1777567810 | 16.67° C | 39% | 1019.9 hPa | 0 mm | - | 572 W/m² | - |
| 1777567506 | 17.22° C | 41% | 1020 hPa | 0 mm | - | 630 W/m² | - |
| 1777567204 | 17.78° C | 44% | 1019.9 hPa | 0 mm | - | 685 W/m² | - |
| 1777566902 | 16.67° C | 43% | 1019.8 hPa | 0 mm | - | 699 W/m² | - |
| 1777566600 | 17.22° C | 38% | 1020.1 hPa | 0 mm | - | 688 W/m² | - |
| 1777566297 | 16.67° C | 43% | 1020.3 hPa | 0 mm | - | 739 W/m² | - |
| 1777565994 | 16.11° C | 48% | 1019.8 hPa | 0 mm | - | 735 W/m² | - |
| 1777565695 | 16.67° C | 42% | 1020 hPa | 0 mm | - | 690 W/m² | - |
| 1777565392 | 16.11° C | 44% | 1020.3 hPa | 0 mm | - | 655 W/m² | - |
| 1777565088 | 16.11° C | 41% | 1019.9 hPa | 0 mm | - | 694 W/m² | - |
| 1777564784 | 16.11° C | 42% | 1019.8 hPa | 0 mm | - | 641 W/m² | - |
| 1777564479 | 16.67° C | 43% | 1019.7 hPa | 0 mm | - | 544 W/m² | - |
| 1777564175 | 16.11° C | 42% | 1019.5 hPa | 0 mm | - | 619 W/m² | - |
| 1777563871 | 15.56° C | 42% | 1019.6 hPa | 0 mm | - | 643 W/m² | - |
| 1777563567 | 15.56° C | 40% | 1019.9 hPa | 0 mm | - | 642 W/m² | - |
| 1777563267 | 15° C | 46% | 1019.9 hPa | 0 mm | - | 566 W/m² | - |
| 1777562963 | 15° C | 43% | 1020 hPa | 0 mm | - | 590 W/m² | - |
| 1777562660 | 15° C | 45% | 1019.9 hPa | 0 mm | - | 573 W/m² | - |
| 1777562354 | 15.56° C | 48% | 1019.9 hPa | 0 mm | - | 545 W/m² | - |
| 1777562050 | 15.56° C | 44% | 1020.3 hPa | 0 mm | - | 550 W/m² | - |
| 1777561747 | 15° C | 45% | 1020 hPa | 0 mm | - | 577 W/m² | - |
| 1777561443 | 14.44° C | 53% | 1020.3 hPa | 0 mm | - | 533 W/m² | - |
| 1777561138 | 14.44° C | 48% | 1020.1 hPa | 0 mm | - | 433 W/m² | - |
| 1777560833 | 14.44° C | 45% | 1020.1 hPa | 0 mm | - | 371 W/m² | - |
* Rain latest hour (hover to see other rain measurements)
** Current wind speed in m/s (hover to see current wind gust speed)